This demonstration page uses our WeatherBlox Daily Observations layout. Learn more.

Left ArrowRight Arrow

36.17497, -115.13722

Hourly Observations for August 12, 2019

Temp ( °F °C ) Dew Point ( °F °C ) Humidity (%) Winds ( mph kmh ) Pressure ( in mb ) Visibility ( mi km ) Precip ( " mm )
12:53 am 00:53 Clear 80 26.7 29 -1.7 15 15 WNW 5 7 29.88 1012 10 16 0.00 0.00
1:53 am 01:53 Clear 78 25.6 31 -0.6 18 18 Calm 29.89 1012 10 16 0.00 0.00
2:53 am 02:53 Clear 76 24.4 31 -0.6 19 19 Calm 29.90 1012 10 16 0.00 0.00
3:53 am 03:53 Clear 73 22.8 32 0 22 22 NNW 8 13 29.91 1013 10 16 0.00 0.00
4:53 am 04:53 Clear 74 23.3 31 -0.6 20 20 Calm 29.91 1013 10 16 0.00 0.00
5:53 am 05:53 Clear 76 24.4 26 -3.3 16 16 NW 5 7 29.92 1013 10 16 0.00 0.00
6:53 am 06:53 Sunny 75 23.9 30 -1.1 19 19 Calm 29.95 1014 10 16 0.00 0.00
7:53 am 07:53 Sunny 81 27.2 30 -1.1 16 16 N 3 6 29.96 1015 10 16 0.00 0.00
8:53 am 08:53 Sunny 86 30 31 -0.6 14 14 Calm 29.96 1015 10 16 0.00 0.00
9:53 am 09:53 Sunny 90 32.2 31 -0.6 12 12 E 3 6 29.97 1015 10 16 0.00 0.00
10:53 am 10:53 Sunny 92 33.3 27 -2.8 10 10 E 9 15 29.97 1015 10 16 0.00 0.00
11:53 am 11:53 Sunny 94 34.4 32 0 11 11 undefined N/A 29.96 1015 10 16 0.00 0.00
12:53 pm 12:53 Sunny 96 35.6 34 1.1 11 11 VRB 7 11 29.93 1014 10 16 0.00 0.00
1:53 pm 13:53 Sunny 99 37.2 32 0 9 9 SW 9 15 29.91 1013 10 16 0.00 0.00
2:53 pm 14:53 Sunny 100 37.8 33 0.6 10 10 undefined N/A 29.89 1012 10 16 0.00 0.00
3:53 pm 15:53 Sunny 100 37.8 34 1.1 10 10 SSE 9 15 29.86 1011 10 16 0.00 0.00
4:53 pm 16:53 Sunny 101 38.3 36 2.2 10 10 SE 12 19 29.83 1010 10 16 0.00 0.00
5:53 pm 17:53 Sunny 100 37.8 36 2.2 11 11 SE 9 15 29.82 1010 10 16 0.00 0.00
6:53 pm 18:53 Sunny 99 37.2 34 1.1 10 10 ESE 7 11 29.82 1010 10 16 0.00 0.00
7:53 pm 19:53 Clear 98 36.7 36 2.2 11 11 VRB 7 11 29.82 1010 10 16 0.00 0.00
8:53 pm 20:53 Clear 96 35.6 31 -0.6 10 10 WSW 10 17 29.85 1011 10 16 0.00 0.00
9:53 pm 21:53 Clear 93 33.9 27 -2.8 9 9 SSW 5 7 29.87 1012 10 16 0.00 0.00
10:53 pm 22:53 Clear 90 32.2 32 0 13 13 S 10 17 29.88 1012 10 16 0.00 0.00
11:53 pm 23:53 Clear 88 31.1 32 0 13 13 WSW 8 13 29.89 1012 10 16 0.00 0.00

Powered by AerisWeather